Flag for U.S.A. Weather past 2 weeks in Unalaska, Alaska, U.S.A.

Now
58 °F

More clouds than sun.


Feels Like: 56 °F
Forecast: 51 / 58 °F
Wind: 8 mph from Southwest

Location: Dutch Harbor

Current Time: Aug 29, 2014 at 3:14:45 PM

Latest Report: Aug 29, 2014 at 1:56 PM


Visibility: 10 mi

Pressure: 29.83 "Hg

Humidity: 75%

Dew point: 50 °F

Location of UnalaskaLocation

Historic Weather in Unalaska — Graph

°F

Unalaska temperature yesterday

Maximum temperature yesterday: 55 °F (at 2:56 PM)
Minimum temperature yesterday: 50 °F (at 6:56 AM)
Average temperature yesterday: 52 °F

Past Weeks' High & Low Weather Summary

 TemperatureHumidityPressure
High62 °F (Aug 26, 2:56 PM)97% (Aug 19, 9:56 PM)30.16 "Hg (Aug 19, 9:56 PM)
Low46 °F (Aug 18, 7:56 AM)60% (Aug 23, 6:56 PM)29.09 "Hg (Aug 15, 1:58 PM)
Average54 °F81%29.88 "Hg
* Reported Aug 14 1:56 PM — Aug 29 1:56 PM, Unalaska, Weather by CustomWeather, © 2014

Note: Actual official high and low records may vary slightly from our data, if they occured in-between our weather recording intervals... More about our weather records

Advertising

Unalaska weather history for previous 24 hours

 ConditionsComfort  
Time TempWeatherWind HumidityBarometerVisibility
1:56 PM
Aug 29
58 °FMore clouds than sun.8 mph75%29.83 "Hg10 mi
12:56 PM57 °FScattered clouds.15 mph78%29.84 "Hg10 mi
10:56 AM55 °FBroken clouds.10 mph80%29.85 "Hg10 mi
9:57 AM52 °FMore clouds than sun.3 mph88%29.84 "Hg10 mi
8:56 AM53 °FPartly cloudy.No wind86%29.85 "Hg10 mi
7:56 AM52 °FMostly cloudy.3 mph89%29.86 "Hg10 mi
6:56 AM52 °FMostly cloudy.8 mph89%29.87 "Hg10 mi
5:56 AM52 °FOvercast.No wind89%29.88 "Hg10 mi
4:56 AM51 °FMostly cloudy.3 mph89%29.87 "Hg10 mi
3:56 AM53 °FMostly cloudy.No wind86%29.87 "Hg10 mi
2:56 AM52 °FOvercast.3 mph89%29.90 "Hg10 mi
1:56 AM51 °FOvercast.No wind89%29.90 "Hg10 mi
12:56 AM51 °FOvercast.No wind92%29.91 "Hg10 mi
11:56 PM
Aug 28
51 °FOvercast.No wind89%29.91 "Hg10 mi
10:56 PM51 °FMostly cloudy.No wind92%29.93 "Hg10 mi
9:56 PM51 °FMostly cloudy.No wind89%29.92 "Hg9 mi
9:01 PM52 °FLight rain. Fog.No wind88%29.90 "Hg3 mi
8:56 PM51 °FLight rain. Fog.No wind92%29.92 "Hg3 mi
7:56 PM52 °FLight rain. Cloudy.No wind86%29.93 "Hg7 mi
5:56 PM54 °FMore clouds than sun.No wind86%29.94 "Hg10 mi
4:56 PM54 °FLight rain. Overcast.3 mph80%29.95 "Hg10 mi
3:56 PM53 °FLight rain. Mostly cloudy.3 mph83%29.96 "Hg10 mi
Weather by CustomWeather, © 2014

See weather overviewHow to use our weather pages